Regional Weather Roundup
Issued by NWS State College, PA

Home | Current Version | Previous Version | Graphics & Text | Print | Product List | Glossary Off
Versions: 1 2 3 4 5 6 7 8 9 10 11 12 13 14 15 16 17 18 19 20 21 22 23 24 25 26 27 28 29 30 31 32 33 34 35 36 37 38 39 40 41 42 43 44 45 46 47 48 49 50

000
ASUS41 KCTP 190410
RWRCTP

REGIONAL WEATHER ROUNDUP
NATIONAL WEATHER SERVICE STATE COLLEGE PA
1200 AM EDT SAT APR 19 2014

Note: "fair" indicates few or no clouds below 12,000 feet with no
significant weather and/or obstructions to visibility.

* = STATION THAT DOES NOT REPORT PRECIPITATION /E.G. RAIN...SNOW...ETC/
    THUNDER OR FOG.

PAZ002>004-007>009-013>016-020>023-029>032-190500-
WESTERN PENNSYLVANIA

CITY           SKY/WX    TMP DP  RH WIND       PRES   REMARKS
ERIE           CLEAR     45  38  76 E5        30.29R
MEADVILLE      PTCLDY    44  39  82 NE7       30.27R
FRANKLIN*      MOCLDY    45  37  76 N8        30.29R
NEW CASTLE     FAIR      49  40  71 N9        30.28R
BEAVER COUNTY  NOT AVBL
BUTLER*        MOCLDY    52  37  58 N6        30.26R
PITTSBURGH INT MOCLDY    54  37  52 NW3       30.23R
PITTSBURGH     CLOUDY    56  37  49 N6        30.22S
INDIANA*       CLOUDY    46  37  71 CALM      30.23S
LATROBE        CLEAR     52  36  54 CALM      30.23S
WASHINGTON CO* CLOUDY    46  36  66 CALM      30.25R
$$

PAZ004>006-010>012-017>019-024>028-033>037-041-042-045-046-049>053-190500-
CENTRAL PENNSYLVANIA

CITY           SKY/WX    TMP DP  RH WIND       PRES   REMARKS
BRADFORD       MOCLDY    44  38  79 NW10      30.26R
DUBOIS         MOCLDY    51  37  58 N6        30.23R
CLEARFIELD     MOCLDY    46  34  62 CALM      30.23S
JOHNSTOWN      CLOUDY    48  31  51 CALM      30.21F
ALTOONA        CLOUDY    46  35  65 CALM      30.24S
STATE COLLEGE  MOCLDY    48  30  49 CALM      30.23S
WILLIAMSPORT   CLOUDY    44  33  65 CALM      30.24F
SELINSGROVE    CLOUDY    43  35  73 CALM      30.25F
FT INDIANTOWN  NOT AVBL
CAPITAL CITY   CLOUDY    48  34  58 W3        30.26F
HARRISBURG     CLOUDY    49  35  58 VRB3      30.26F
YORK           CLOUDY    44  33  65 CALM      30.26F
$$

PAZ038>040-043-044-047-048-054-055-060>062-067>071-190500-
EASTERN PENNSYLVANIA

CITY           SKY/WX    TMP DP  RH WIND       PRES   REMARKS
SCRANTON       MOCLDY    42  31  64 SW6       30.24S
MOUNT POCONO   CLOUDY    40  30  67 NW9       30.22S
ALLENTOWN      CLOUDY    40  32  73 SW5       30.26S
QUAKERTOWN*    CLOUDY    45  32  61 CALM      30.27S
READING        CLOUDY    47  32  56 SW3       30.26F
LANCASTER      CLOUDY    45  31  58 SW3       30.26F
COATESVILLE    CLOUDY    43  34  70 CALM      30.27F
POTTSTOWN      CLOUDY    44  33  65 CALM      30.28F
BLUE BELL      CLOUDY    46  37  71 SW3       30.27F
DOYLESTOWN     CLOUDY    41  36  82 S3        30.26F
WILLOW GROVE   NOT AVBL
NORTH PHILA    CLOUDY    44  35  70 SE3       30.30F
PHILADELPHIA   CLOUDY    46  37  71 S6        30.30F
$$



USA.gov is the U.S. government's official web portal to all federal, state and local government web resources and services.